﻿測定場所 (Monitoring sites),日付 (Measurement date),時間 (Measurement time),線量率 最大値 (max) μGy/h,線量率 最小値 (min) μGy/h,線量率 平均値 (average) μGy/h,
足立 (Adachi),2019-08-04,23:01～24:00,0.0324,0.0287,0.0301,
足立 (Adachi),2019-08-04,22:01～23:00,0.0314,0.0276,0.0299,
足立 (Adachi),2019-08-04,21:01～22:00,0.0323,0.0281,0.0299,
足立 (Adachi),2019-08-04,20:01～21:00,0.0322,0.0284,0.0301,
足立 (Adachi),2019-08-04,19:01～20:00,0.0324,0.0284,0.0302,
足立 (Adachi),2019-08-04,18:01～19:00,0.0316,0.0283,0.0301,
足立 (Adachi),2019-08-04,17:01～18:00,0.0323,0.0282,0.0301,
足立 (Adachi),2019-08-04,16:01～17:00,0.0322,0.0265,0.0299,
足立 (Adachi),2019-08-04,15:01～16:00,0.0319,0.0284,0.0301,
足立 (Adachi),2019-08-04,14:01～15:00,0.0314,0.0279,0.0299,
足立 (Adachi),2019-08-04,13:01～14:00,0.0315,0.0283,0.0299,
足立 (Adachi),2019-08-04,12:01～13:00,0.0320,0.0285,0.0300,
足立 (Adachi),2019-08-04,11:01～12:00,0.0319,0.0282,0.0300,
足立 (Adachi),2019-08-04,10:01～11:00,0.0313,0.0276,0.0297,
足立 (Adachi),2019-08-04,09:01～10:00,0.0322,0.0281,0.0300,
足立 (Adachi),2019-08-04,08:01～09:00,0.0318,0.0287,0.0300,
足立 (Adachi),2019-08-04,07:01～08:00,0.0322,0.0285,0.0301,
足立 (Adachi),2019-08-04,06:01～07:00,0.0319,0.0275,0.0298,
足立 (Adachi),2019-08-04,05:01～06:00,0.0320,0.0282,0.0300,
足立 (Adachi),2019-08-04,04:01～05:00,0.0321,0.0282,0.0302,
足立 (Adachi),2019-08-04,03:01～04:00,0.0315,0.0276,0.0295,
足立 (Adachi),2019-08-04,02:01～03:00,0.0313,0.0268,0.0298,
足立 (Adachi),2019-08-04,01:01～02:00,0.0317,0.0280,0.0298,
足立 (Adachi),2019-08-04,00:01～01:00,0.0326,0.0280,0.0301,
足立 (Adachi),2019-08-03,23:01～24:00,0.0317,0.0283,0.0300,
足立 (Adachi),2019-08-03,22:01～23:00,0.0317,0.0285,0.0301,
足立 (Adachi),2019-08-03,21:01～22:00,0.0320,0.0274,0.0298,
足立 (Adachi),2019-08-03,20:01～21:00,0.0324,0.0282,0.0300,
足立 (Adachi),2019-08-03,19:01～20:00,0.0314,0.0280,0.0297,
足立 (Adachi),2019-08-03,18:01～19:00,0.0316,0.0279,0.0299,
足立 (Adachi),2019-08-03,17:01～18:00,0.0319,0.0278,0.0295,
足立 (Adachi),2019-08-03,16:01～17:00,0.0318,0.0271,0.0296,
足立 (Adachi),2019-08-03,15:01～16:00,0.0317,0.0284,0.0299,
足立 (Adachi),2019-08-03,14:01～15:00,0.0319,0.0276,0.0297,
足立 (Adachi),2019-08-03,13:01～14:00,0.0315,0.0279,0.0294,
足立 (Adachi),2019-08-03,12:01～13:00,0.0314,0.0278,0.0297,
足立 (Adachi),2019-08-03,11:01～12:00,0.0313,0.0277,0.0297,
足立 (Adachi),2019-08-03,10:01～11:00,0.0311,0.0280,0.0296,
足立 (Adachi),2019-08-03,09:01～10:00,0.0312,0.0275,0.0295,
足立 (Adachi),2019-08-03,08:01～09:00,0.0311,0.0266,0.0292,
足立 (Adachi),2019-08-03,07:01～08:00,0.0315,0.0269,0.0292,
足立 (Adachi),2019-08-03,06:01～07:00,0.0312,0.0275,0.0293,
足立 (Adachi),2019-08-03,05:01～06:00,0.0310,0.0279,0.0292,
足立 (Adachi),2019-08-03,04:01～05:00,0.0319,0.0272,0.0293,
足立 (Adachi),2019-08-03,03:01～04:00,0.0312,0.0281,0.0295,
足立 (Adachi),2019-08-03,02:01～03:00,0.0319,0.0275,0.0294,
足立 (Adachi),2019-08-03,01:01～02:00,0.0311,0.0274,0.0293,
足立 (Adachi),2019-08-03,00:01～01:00,0.0313,0.0277,0.0294,
足立 (Adachi),2019-08-02,23:01～24:00,0.0320,0.0283,0.0295,
足立 (Adachi),2019-08-02,22:01～23:00,0.0315,0.0278,0.0294,
足立 (Adachi),2019-08-02,21:01～22:00,0.0309,0.0275,0.0292,
足立 (Adachi),2019-08-02,20:01～21:00,0.0314,0.0276,0.0294,
足立 (Adachi),2019-08-02,19:01～20:00,0.0314,0.0282,0.0294,
足立 (Adachi),2019-08-02,18:01～19:00,0.0327,0.0274,0.0295,
足立 (Adachi),2019-08-02,17:01～18:00,0.0320,0.0279,0.0299,
足立 (Adachi),2019-08-02,16:01～17:00,0.0312,0.0279,0.0294,
足立 (Adachi),2019-08-02,15:01～16:00,0.0313,0.0279,0.0297,
足立 (Adachi),2019-08-02,14:01～15:00,0.0314,0.0278,0.0298,
足立 (Adachi),2019-08-02,13:01～14:00,0.0319,0.0277,0.0298,
足立 (Adachi),2019-08-02,12:01～13:00,0.0316,0.0274,0.0299,
足立 (Adachi),2019-08-02,11:01～12:00,0.0327,0.0281,0.0301,
足立 (Adachi),2019-08-02,10:01～11:00,0.0319,0.0278,0.0300,
足立 (Adachi),2019-08-02,09:01～10:00,0.0327,0.0282,0.0304,
足立 (Adachi),2019-08-02,08:01～09:00,0.0320,0.0284,0.0301,
足立 (Adachi),2019-08-02,07:01～08:00,0.0312,0.0282,0.0295,
足立 (Adachi),2019-08-02,06:01～07:00,0.0317,0.0268,0.0299,
足立 (Adachi),2019-08-02,05:01～06:00,0.0316,0.0276,0.0295,
足立 (Adachi),2019-08-02,04:01～05:00,0.0316,0.0281,0.0297,
足立 (Adachi),2019-08-02,03:01～04:00,0.0318,0.0276,0.0296,
足立 (Adachi),2019-08-02,02:01～03:00,0.0312,0.0275,0.0294,
足立 (Adachi),2019-08-02,01:01～02:00,0.0327,0.0281,0.0299,
足立 (Adachi),2019-08-02,00:01～01:00,0.0317,0.0282,0.0298,
足立 (Adachi),2019-08-01,23:01～24:00,0.0325,0.0279,0.0298,
足立 (Adachi),2019-08-01,22:01～23:00,0.0318,0.0286,0.0300,
足立 (Adachi),2019-08-01,21:01～22:00,0.0318,0.0276,0.0295,
足立 (Adachi),2019-08-01,20:01～21:00,0.0314,0.0278,0.0294,
足立 (Adachi),2019-08-01,19:01～20:00,0.0329,0.0286,0.0299,
足立 (Adachi),2019-08-01,18:01～19:00,0.0314,0.0275,0.0298,
足立 (Adachi),2019-08-01,17:01～18:00,0.0320,0.0272,0.0296,
足立 (Adachi),2019-08-01,16:01～17:00,0.0315,0.0279,0.0295,
足立 (Adachi),2019-08-01,15:01～16:00,0.0329,0.0283,0.0302,
足立 (Adachi),2019-08-01,14:01～15:00,0.0335,0.0280,0.0309,
足立 (Adachi),2019-08-01,13:01～14:00,0.0325,0.0273,0.0296,
足立 (Adachi),2019-08-01,12:01～13:00,0.0313,0.0273,0.0296,
足立 (Adachi),2019-08-01,11:01～12:00,0.0314,0.0281,0.0298,
足立 (Adachi),2019-08-01,10:01～11:00,0.0315,0.0276,0.0295,
足立 (Adachi),2019-08-01,09:01～10:00,0.0312,0.0271,0.0293,
足立 (Adachi),2019-08-01,08:01～09:00,0.0314,0.0277,0.0295,
足立 (Adachi),2019-08-01,07:01～08:00,0.0317,0.0280,0.0296,
足立 (Adachi),2019-08-01,06:01～07:00,0.0322,0.0272,0.0298,
足立 (Adachi),2019-08-01,05:01～06:00,0.0310,0.0277,0.0293,
足立 (Adachi),2019-08-01,04:01～05:00,0.0315,0.0269,0.0296,
足立 (Adachi),2019-08-01,03:01～04:00,0.0307,0.0272,0.0292,
足立 (Adachi),2019-08-01,02:01～03:00,0.0313,0.0269,0.0290,
足立 (Adachi),2019-08-01,01:01～02:00,0.0315,0.0267,0.0292,
足立 (Adachi),2019-08-01,00:01～01:00,0.0308,0.0274,0.0292,
足立 (Adachi),2019-07-31,23:01～24:00,0.0316,0.0267,0.0291,
足立 (Adachi),2019-07-31,22:01～23:00,0.0312,0.0277,0.0293,
足立 (Adachi),2019-07-31,21:01～22:00,0.0310,0.0268,0.0291,
足立 (Adachi),2019-07-31,20:01～21:00,0.0312,0.0278,0.0294,
足立 (Adachi),2019-07-31,19:01～20:00,0.0318,0.0273,0.0295,
足立 (Adachi),2019-07-31,18:01～19:00,0.0307,0.0270,0.0290,
足立 (Adachi),2019-07-31,17:01～18:00,0.0315,0.0270,0.0295,
足立 (Adachi),2019-07-31,16:01～17:00,0.0312,0.0276,0.0295,
足立 (Adachi),2019-07-31,15:01～16:00,0.0316,0.0277,0.0295,
足立 (Adachi),2019-07-31,14:01～15:00,0.0315,0.0277,0.0293,
足立 (Adachi),2019-07-31,13:01～14:00,0.0311,0.0267,0.0291,
足立 (Adachi),2019-07-31,12:01～13:00,0.0307,0.0272,0.0292,
足立 (Adachi),2019-07-31,11:01～12:00,0.0311,0.0266,0.0292,
足立 (Adachi),2019-07-31,10:01～11:00,0.0307,0.0269,0.0291,
足立 (Adachi),2019-07-31,09:01～10:00,0.0310,0.0273,0.0290,
足立 (Adachi),2019-07-31,08:01～09:00,0.0301,0.0264,0.0286,
足立 (Adachi),2019-07-31,07:01～08:00,0.0309,0.0269,0.0287,
足立 (Adachi),2019-07-31,06:01～07:00,0.0310,0.0269,0.0289,
足立 (Adachi),2019-07-31,05:01～06:00,0.0306,0.0275,0.0290,
足立 (Adachi),2019-07-31,04:01～05:00,0.0307,0.0268,0.0288,
足立 (Adachi),2019-07-31,03:01～04:00,0.0316,0.0267,0.0291,
足立 (Adachi),2019-07-31,02:01～03:00,0.0311,0.0272,0.0295,
足立 (Adachi),2019-07-31,01:01～02:00,0.0320,0.0278,0.0292,
足立 (Adachi),2019-07-31,00:01～01:00,0.0311,0.0276,0.0294,
足立 (Adachi),2019-07-30,23:01～24:00,0.0313,0.0274,0.0292,
足立 (Adachi),2019-07-30,22:01～23:00,0.0315,0.0275,0.0294,
足立 (Adachi),2019-07-30,21:01～22:00,0.0316,0.0278,0.0294,
足立 (Adachi),2019-07-30,20:01～21:00,0.0315,0.0271,0.0293,
足立 (Adachi),2019-07-30,19:01～20:00,0.0309,0.0274,0.0290,
足立 (Adachi),2019-07-30,18:01～19:00,0.0306,0.0275,0.0292,
足立 (Adachi),2019-07-30,17:01～18:00,0.0314,0.0272,0.0291,
足立 (Adachi),2019-07-30,16:01～17:00,0.0309,0.0270,0.0292,
足立 (Adachi),2019-07-30,15:01～16:00,0.0309,0.0274,0.0291,
足立 (Adachi),2019-07-30,14:01～15:00,0.0313,0.0270,0.0289,
足立 (Adachi),2019-07-30,13:01～14:00,0.0312,0.0269,0.0291,
足立 (Adachi),2019-07-30,12:01～13:00,0.0305,0.0269,0.0287,
足立 (Adachi),2019-07-30,11:01～12:00,0.0307,0.0269,0.0288,
足立 (Adachi),2019-07-30,10:01～11:00,0.0311,0.0274,0.0292,
足立 (Adachi),2019-07-30,09:01～10:00,0.0300,0.0277,0.0289,
足立 (Adachi),2019-07-30,08:01～09:00,0.0309,0.0263,0.0287,
足立 (Adachi),2019-07-30,07:01～08:00,0.0313,0.0273,0.0292,
足立 (Adachi),2019-07-30,06:01～07:00,0.0311,0.0267,0.0287,
足立 (Adachi),2019-07-30,05:01～06:00,0.0316,0.0273,0.0292,
足立 (Adachi),2019-07-30,04:01～05:00,0.0317,0.0270,0.0295,
足立 (Adachi),2019-07-30,03:01～04:00,0.0320,0.0279,0.0294,
足立 (Adachi),2019-07-30,02:01～03:00,0.0321,0.0276,0.0294,
足立 (Adachi),2019-07-30,01:01～02:00,0.0313,0.0279,0.0295,
足立 (Adachi),2019-07-30,00:01～01:00,0.0318,0.0274,0.0295,
足立 (Adachi),2019-07-29,23:01～24:00,0.0318,0.0276,0.0291,
足立 (Adachi),2019-07-29,22:01～23:00,0.0309,0.0272,0.0290,
足立 (Adachi),2019-07-29,21:01～22:00,0.0305,0.0269,0.0287,
足立 (Adachi),2019-07-29,20:01～21:00,0.0312,0.0273,0.0290,
足立 (Adachi),2019-07-29,19:01～20:00,0.0305,0.0269,0.0286,
足立 (Adachi),2019-07-29,18:01～19:00,0.0303,0.0269,0.0285,
足立 (Adachi),2019-07-29,17:01～18:00,0.0303,0.0263,0.0286,
足立 (Adachi),2019-07-29,16:01～17:00,0.0304,0.0268,0.0287,
足立 (Adachi),2019-07-29,15:01～16:00,0.0308,0.0267,0.0289,
足立 (Adachi),2019-07-29,14:01～15:00,0.0309,0.0269,0.0287,
足立 (Adachi),2019-07-29,13:01～14:00,0.0310,0.0271,0.0286,
足立 (Adachi),2019-07-29,12:01～13:00,0.0303,0.0267,0.0287,
足立 (Adachi),2019-07-29,11:01～12:00,0.0311,0.0272,0.0288,
足立 (Adachi),2019-07-29,10:01～11:00,0.0314,0.0263,0.0291,
足立 (Adachi),2019-07-29,09:01～10:00,0.0312,0.0274,0.0296,
足立 (Adachi),2019-07-29,08:01～09:00,0.0321,0.0276,0.0291,
足立 (Adachi),2019-07-29,07:01～08:00,0.0308,0.0274,0.0293,
足立 (Adachi),2019-07-29,06:01～07:00,0.0312,0.0276,0.0291,
足立 (Adachi),2019-07-29,05:01～06:00,0.0313,0.0267,0.0291,
足立 (Adachi),2019-07-29,04:01～05:00,0.0313,0.0273,0.0293,
足立 (Adachi),2019-07-29,03:01～04:00,0.0310,0.0276,0.0291,
足立 (Adachi),2019-07-29,02:01～03:00,0.0305,0.0272,0.0289,
足立 (Adachi),2019-07-29,01:01～02:00,0.0313,0.0269,0.0287,
足立 (Adachi),2019-07-29,00:01～01:00,0.0304,0.0269,0.0288,
